| time (UTC) | temp C | wind direction | speed KPH | gust KPH | rain 1hr cm | rain 24hr cm | rain mn cm | humidity % | barometer mb |
| 20260906195516 | 38 | 34 | 0.0 | 6.4 | 0.00 | 0.00 | 0.00 | 33 | 1013.3 |
| 20260906195014 | 38 | 209 | 1.6 | 11.3 | 0.00 | 0.00 | 0.00 | 33 | 1013.3 |
| 20260906194530 | 38 | 246 | 1.6 | 11.3 | 0.00 | 0.00 | 0.00 | 33 | 1013.5 |
| 20260906194017 | 38 | 290 | 4.8 | 11.3 | 0.00 | 0.00 | 0.00 | 33 | 1013.5 |
| 20260906193517 | 38 | 265 | 1.6 | 9.7 | 0.00 | 0.00 | 0.00 | 34 | 1013.5 |
| 20260906193013 | 38 | 273 | 1.6 | 6.4 | 0.00 | 0.00 | 0.00 | 36 | 1013.6 |
| 20260906192506 | 38 | 266 | 3.2 | 6.4 | 0.00 | 0.00 | 0.00 | 34 | 1013.7 |
| 20260906192008 | 38 | 310 | 0.0 | 4.8 | 0.00 | 0.00 | 0.00 | 36 | 1013.7 |
| 20260906191533 | 38 | 92 | 0.0 | 6.4 | 0.00 | 0.00 | 0.00 | 35 | 1013.7 |
| 20260906191009 | 38 | 285 | 0.0 | 6.4 | 0.00 | 0.00 | 0.00 | 37 | 1013.9 |
| 20260906190510 | 38 | 239 | 1.6 | 11.3 | 0.00 | 0.00 | 0.00 | 35 | 1014.0 |
| 20260906190030 | 37 | 249 | 3.2 | 14.5 | 0.00 | 0.00 | 0.00 | 35 | 1014.1 |
| 20260906185512 | 38 | 232 | 4.8 | 14.5 | 0.00 | 0.00 | 0.00 | 34 | 1014.1 |
| 20260906185011 | 38 | 229 | 1.6 | 11.3 | 0.00 | 0.00 | 0.00 | 37 | 1014.1 |
| 20260906184529 | 38 | 360 | 3.2 | 11.3 | 0.00 | 0.00 | 0.00 | 35 | 1014.1 |
| 20260906184014 | 38 | 289 | 0.0 | 12.9 | 0.00 | 0.00 | 0.00 | 35 | 1014.3 |
| 20260906183517 | 37 | 140 | 1.6 | 12.9 | 0.00 | 0.00 | 0.00 | 36 | 1014.3 |
| 20260906183030 | 37 | 292 | 0.0 | 11.3 | 0.00 | 0.00 | 0.00 | 35 | 1014.4 |
| 20260906182516 | 37 | 259 | 1.6 | 6.4 | 0.00 | 0.00 | 0.00 | 36 | 1014.5 |
| 20260906182014 | 37 | 310 | 0.0 | 9.7 | 0.00 | 0.00 | 0.00 | 35 | 1014.6 |
| 20260906181536 | 37 | 140 | 1.6 | 9.7 | 0.00 | 0.00 | 0.00 | 35 | 1014.7 |
| 20260906181007 | 37 | 259 | 1.6 | 9.7 | 0.00 | 0.00 | 0.00 | 36 | 1014.8 |
| 20260906180508 | 37 | 243 | 1.6 | 11.3 | 0.00 | 0.00 | 0.00 | 35 | 1015.0 |
| 20260906180031 | 37 | 261 | 3.2 | 11.3 | 0.00 | 0.00 | 0.00 | 36 | 1015.1 |
| 20260906175511 | 37 | 238 | 4.8 | 9.7 | 0.00 | 0.00 | 0.00 | 36 | 1015.2 |
| 20260906175015 | 37 | 250 | 0.0 | 6.4 | 0.00 | 0.00 | 0.00 | 37 | 1015.3 |
| 20260906174526 | 37 | 352 | 1.6 | 6.4 | 0.00 | 0.00 | 0.00 | 37 | 1015.4 |
| 20260906174013 | 37 | 5 | 0.0 | 4.8 | 0.00 | 0.00 | 0.00 | 37 | 1015.6 |
| 20260906173514 | 36 | 327 | 1.6 | 4.8 | 0.00 | 0.00 | 0.00 | 39 | 1015.6 |
| 20260906173030 | 36 | 98 | 1.6 | 4.8 | 0.00 | 0.00 | 0.00 | 39 | 1015.7 |
| 20260906172515 | 36 | 269 | 1.6 | 6.4 | 0.00 | 0.00 | 0.00 | 38 | 1015.8 |
| 20260906172014 | 36 | 313 | 1.6 | 6.4 | 0.00 | 0.00 | 0.00 | 40 | 1015.9 |
| 20260906171534 | 36 | 186 | 0.0 | 6.4 | 0.00 | 0.00 | 0.00 | 42 | 1016.0 |
| 20260906171018 | 36 | 186 | 0.0 | 6.4 | 0.00 | 0.00 | 0.00 | 39 | 1016.0 |
| 20260906170521 | 36 | 193 | 1.6 | 4.8 | 0.00 | 0.00 | 0.00 | 41 | 1016.1 |
| 20260906170032 | 36 | 186 | 1.6 | 6.4 | 0.00 | 0.00 | 0.00 | 41 | 1016.1 |
| 20260906165507 | 36 | 261 | 0.0 | 9.7 | 0.00 | 0.00 | 0.00 | 41 | 1016.2 |
| 20260906165007 | 36 | 261 | 3.2 | 9.7 | 0.00 | 0.00 | 0.00 | 41 | 1016.3 |
| 20260906164536 | 36 | 64 | 0.0 | 3.2 | 0.00 | 0.00 | 0.00 | 43 | 1016.2 |
| 20260906164011 | 35 | 64 | 0.0 | 4.8 | 0.00 | 0.00 | 0.00 | 43 | 1016.3 |
| 20260906163503 | 35 | 30 | 0.0 | 6.4 | 0.00 | 0.00 | 0.00 | 43 | 1016.3 |
| 20260906163004 | 35 | 30 | 1.6 | 8.0 | 0.00 | 0.00 | 0.00 | 42 | 1016.4 |
| 20260906162507 | 35 | 15 | 1.6 | 8.0 | 0.00 | 0.00 | 0.00 | 43 | 1016.3 |
| 20260906162001 | 35 | 59 | 1.6 | 3.2 | 0.00 | 0.00 | 0.00 | 43 | 1016.3 |
| 20260906161510 | 35 | 58 | 0.0 | 4.8 | 0.00 | 0.00 | 0.00 | 44 | 1016.2 |
| 20260906161006 | 35 | 58 | 1.6 | 4.8 | 0.00 | 0.00 | 0.00 | 45 | 1016.2 |
| 20260906160506 | 35 | 37 | 0.0 | 4.8 | 0.00 | 0.00 | 0.00 | 47 | 1016.2 |
| 20260906160013 | 35 | 340 | 1.6 | 4.8 | 0.00 | 0.00 | 0.00 | 46 | 1016.3 |
| 20260906155507 | 35 | 292 | 0.0 | 4.8 | 0.00 | 0.00 | 0.00 | 44 | 1016.3 |
| 20260906155008 | 34 | 225 | 0.0 | 4.8 | 0.00 | 0.00 | 0.00 | 48 | 1016.2 |
| 20260906154535 | 34 | 225 | 0.0 | 6.4 | 0.00 | 0.00 | 0.00 | 46 | 1016.2 |
| 20260906154010 | 34 | 42 | 0.0 | 6.4 | 0.00 | 0.00 | 0.00 | 48 | 1016.2 |
| 20260906153514 | 33 | 67 | 0.0 | 4.8 | 0.00 | 0.00 | 0.00 | 46 | 1016.2 |
| 20260906153028 | 33 | 15 | 0.0 | 6.4 | 0.00 | 0.00 | 0.00 | 47 | 1016.2 |
| 20260906152503 | 33 | 26 | 0.0 | 8.0 | 0.00 | 0.00 | 0.00 | 48 | 1016.2 |
| 20260906152004 | 33 | 292 | 1.6 | 8.0 | 0.00 | 0.00 | 0.00 | 48 | 1016.2 |
| 20260906151506 | 32 | 36 | 0.0 | 4.8 | 0.00 | 0.00 | 0.00 | 50 | 1016.1 |
| 20260906151004 | 32 | 242 | 1.6 | 4.8 | 0.00 | 0.00 | 0.00 | 49 | 1016.1 |
| 20260906150502 | 32 | 360 | 0.0 | 4.8 | 0.00 | 0.00 | 0.00 | 50 | 1016.1 |
| 20260906150011 | 32 | 243 | 0.0 | 4.8 | 0.00 | 0.00 | 0.00 | 53 | 1016.1 |
| 20260906145509 | 31 | 243 | 0.0 | 4.8 | 0.00 | 0.00 | 0.00 | 51 | 1016.0 |
| 20260906145006 | 31 | 263 | 0.0 | 3.2 | 0.00 | 0.00 | 0.00 | 52 | 1016.0 |
| 20260906144515 | 31 | 272 | 0.0 | 3.2 | 0.00 | 0.00 | 0.00 | 53 | 1016.1 |
| 20260906144006 | 30 | 272 | 0.0 | 0.0 | 0.00 | 0.00 | 0.00 | 57 | 1016.0 |
| 20260906143511 | 30 | 272 | 0.0 | 0.0 | 0.00 | 0.00 | 0.00 | 58 | 1016.0 |
| 20260906143022 | 29 | 272 | 0.0 | 0.0 | 0.00 | 0.00 | 0.00 | 64 | 1016.0 |
| 20260906142512 | 28 | 272 | 0.0 | 0.0 | 0.00 | 0.00 | 0.00 | 68 | 1016.0 |
| 20260906142011 | 28 | 272 | 0.0 | 1.6 | 0.00 | 0.00 | 0.00 | 70 | 1016.0 |
| 20260906141534 | 27 | 272 | 0.0 | 1.6 | 0.00 | 0.00 | 0.00 | 71 | 1016.1 |
| 20260906141011 | 26 | 272 | 0.0 | 1.6 | 0.00 | 0.00 | 0.00 | 73 | 1016.2 |
| 20260906140503 | 26 | 272 | 0.0 | 0.0 | 0.00 | 0.00 | 0.00 | 76 | 1016.1 |
| 20260906140008 | 25 | 272 | 0.0 | 0.0 | 0.00 | 0.00 | 0.00 | 76 | 1016.0 |
| 20260906135507 | 24 | 272 | 0.0 | 0.0 | 0.00 | 0.00 | 0.00 | 78 | 1016.0 |
| 20260906135002 | 24 | 272 | 0.0 | 0.0 | 0.00 | 0.00 | 0.00 | 83 | 1015.9 |
| 20260906134518 | 23 | 272 | 0.0 | 0.0 | 0.00 | 0.00 | 0.00 | 83 | 1015.8 |
| 20260906134008 | 23 | 272 | 0.0 | 0.0 | 0.00 | 0.00 | 0.00 | 82 | 1015.8 |
| 20260906133506 | 23 | 272 | 0.0 | 0.0 | 0.00 | 0.00 | 0.00 | 85 | 1015.7 |
| 20260906133016 | 22 | 272 | 0.0 | 0.0 | 0.00 | 0.00 | 0.00 | 86 | 1015.6 |
| 20260906132513 | 22 | 263 | 0.0 | 0.0 | 0.00 | 0.00 | 0.00 | 86 | 1015.6 |
| 20260906132015 | 22 | 245 | 0.0 | 0.0 | 0.00 | 0.00 | 0.00 | 87 | 1015.6 |
| 20260906131524 | 22 | 245 | 0.0 | 0.0 | 0.00 | 0.00 | 0.00 | 85 | 1015.6 |
| 20260906131013 | 22 | 245 | 0.0 | 0.0 | 0.00 | 0.00 | 0.00 | 85 | 1015.6 |
| 20260906130511 | 22 | 245 | 0.0 | 0.0 | 0.00 | 0.00 | 0.00 | 85 | 1015.6 |
| 20260906130032 | 21 | 245 | 0.0 | 0.0 | 0.00 | 0.00 | 0.00 | 85 | 1015.5 |
| 20260906125512 | 21 | 245 | 0.0 | 0.0 | 0.00 | 0.00 | 0.00 | 86 | 1015.4 |
| 20260906125005 | 21 | 245 | 0.0 | 0.0 | 0.00 | 0.00 | 0.00 | 85 | 1015.3 |
| 20260906124512 | 21 | 245 | 0.0 | 0.0 | 0.00 | 0.00 | 0.00 | 85 | 1015.2 |
| 20260906124006 | 21 | 245 | 0.0 | 0.0 | 0.00 | 0.00 | 0.00 | 85 | 1015.2 |
| 20260906123507 | 21 | 245 | 0.0 | 0.0 | 0.00 | 0.00 | 0.00 | 85 | 1015.1 |
| 20260906123016 | 21 | 245 | 0.0 | 0.0 | 0.00 | 0.00 | 0.00 | 85 | 1015.0 |
| 20260906122506 | 21 | 245 | 0.0 | 0.0 | 0.00 | 0.00 | 0.00 | 84 | 1014.9 |
| 20260906122009 | 21 | 245 | 0.0 | 0.0 | 0.00 | 0.00 | 0.00 | 85 | 1014.9 |
| 20260906121522 | 21 | 245 | 0.0 | 0.0 | 0.00 | 0.00 | 0.00 | 85 | 1014.8 |
| 20260906121011 | 21 | 245 | 0.0 | 0.0 | 0.00 | 0.00 | 0.00 | 85 | 1014.8 |
| 20260906120512 | 21 | 245 | 0.0 | 0.0 | 0.00 | 0.00 | 0.00 | 84 | 1014.7 |
| 20260906120029 | 21 | 245 | 0.0 | 0.0 | 0.00 | 0.00 | 0.00 | 83 | 1014.6 |
| 20260906115513 | 21 | 245 | 0.0 | 0.0 | 0.00 | 0.00 | 0.00 | 83 | 1014.5 |
| 20260906115015 | 21 | 245 | 0.0 | 0.0 | 0.00 | 0.00 | 0.00 | 83 | 1014.5 |
| 20260906114544 | 21 | 245 | 0.0 | 0.0 | 0.00 | 0.00 | 0.00 | 83 | 1014.5 |
| 20260906114013 | 21 | 245 | 0.0 | 0.0 | 0.00 | 0.00 | 0.00 | 83 | 1014.4 |
| 20260906113506 | 21 | 245 | 0.0 | 0.0 | 0.00 | 0.00 | 0.00 | 83 | 1014.4 |
| 20260906113015 | 21 | 245 | 0.0 | 0.0 | 0.00 | 0.00 | 0.00 | 83 | 1014.5 |
| 20260906112507 | 21 | 245 | 0.0 | 0.0 | 0.00 | 0.00 | 0.00 | 83 | 1014.4 |
| 20260906112007 | 21 | 245 | 0.0 | 0.0 | 0.00 | 0.00 | 0.00 | 83 | 1014.3 |
| 20260906111518 | 21 | 245 | 0.0 | 0.0 | 0.00 | 0.00 | 0.00 | 83 | 1014.3 |
| 20260906111009 | 21 | 245 | 0.0 | 0.0 | 0.00 | 0.00 | 0.00 | 82 | 1014.3 |
| 20260906110512 | 21 | 245 | 0.0 | 0.0 | 0.00 | 0.00 | 0.00 | 82 | 1014.2 |
| 20260906110026 | 21 | 245 | 0.0 | 0.0 | 0.00 | 0.00 | 0.00 | 82 | 1014.2 |
| 20260906105511 | 22 | 245 | 0.0 | 0.0 | 0.00 | 0.00 | 0.00 | 82 | 1014.2 |
| 20260906105012 | 22 | 245 | 0.0 | 0.0 | 0.00 | 0.00 | 0.00 | 82 | 1014.1 |
| 20260906104534 | 22 | 245 | 0.0 | 0.0 | 0.00 | 0.00 | 0.00 | 82 | 1014.1 |
| 20260906104017 | 22 | 245 | 0.0 | 0.0 | 0.00 | 0.00 | 0.00 | 82 | 1014.1 |
| 20260906103514 | 22 | 245 | 0.0 | 0.0 | 0.00 | 0.00 | 0.00 | 83 | 1014.0 |
| 20260906103034 | 22 | 245 | 0.0 | 0.0 | 0.00 | 0.00 | 0.00 | 83 | 1014.0 |
| 20260906102514 | 22 | 245 | 0.0 | 0.0 | 0.00 | 0.00 | 0.00 | 83 | 1014.1 |
| 20260906102006 | 22 | 245 | 0.0 | 0.0 | 0.00 | 0.00 | 0.00 | 82 | 1014.1 |
| 20260906101514 | 22 | 245 | 0.0 | 0.0 | 0.00 | 0.00 | 0.00 | 81 | 1014.0 |
| 20260906101005 | 22 | 245 | 0.0 | 0.0 | 0.00 | 0.00 | 0.00 | 80 | 1014.0 |
| 20260906100508 | 22 | 245 | 0.0 | 0.0 | 0.00 | 0.00 | 0.00 | 80 | 1014.0 |
| 20260906100021 | 22 | 245 | 0.0 | 0.0 | 0.00 | 0.00 | 0.00 | 79 | 1014.1 |
| 20260906095508 | 22 | 245 | 0.0 | 0.0 | 0.00 | 0.00 | 0.00 | 79 | 1014.1 |
| 20260906095013 | 22 | 245 | 0.0 | 0.0 | 0.00 | 0.00 | 0.00 | 79 | 1014.1 |
| 20260906094551 | 22 | 245 | 0.0 | 0.0 | 0.00 | 0.00 | 0.00 | 79 | 1014.1 |
| 20260906094016 | 22 | 245 | 0.0 | 0.0 | 0.00 | 0.00 | 0.00 | 80 | 1014.1 |
| 20260906093516 | 22 | 245 | 0.0 | 0.0 | 0.00 | 0.00 | 0.00 | 80 | 1014.0 |
| 20260906093042 | 22 | 245 | 0.0 | 0.0 | 0.00 | 0.00 | 0.00 | 79 | 1014.0 |
| 20260906092517 | 22 | 245 | 0.0 | 0.0 | 0.00 | 0.00 | 0.00 | 78 | 1014.1 |
| 20260906092016 | 22 | 245 | 0.0 | 0.0 | 0.00 | 0.00 | 0.00 | 78 | 1014.0 |
| 20260906091532 | 22 | 245 | 0.0 | 0.0 | 0.00 | 0.00 | 0.00 | 79 | 1014.0 |
| 20260906091015 | 22 | 245 | 0.0 | 0.0 | 0.00 | 0.00 | 0.00 | 79 | 1014.0 |
| 20260906090507 | 22 | 245 | 0.0 | 0.0 | 0.00 | 0.00 | 0.00 | 79 | 1014.1 |
| 20260906090024 | 22 | 245 | 0.0 | 0.0 | 0.00 | 0.00 | 0.00 | 77 | 1014.1 |
| 20260906085506 | 23 | 245 | 0.0 | 0.0 | 0.00 | 0.00 | 0.00 | 77 | 1014.0 |
| 20260906085010 | 23 | 245 | 0.0 | 0.0 | 0.00 | 0.00 | 0.00 | 78 | 1014.0 |
| 20260906084527 | 23 | 245 | 0.0 | 0.0 | 0.00 | 0.00 | 0.00 | 77 | 1013.9 |
| 20260906084011 | 23 | 245 | 0.0 | 0.0 | 0.00 | 0.00 | 0.00 | 76 | 1013.8 |
| 20260906083512 | 23 | 245 | 0.0 | 0.0 | 0.00 | 0.00 | 0.00 | 76 | 1013.8 |
| 20260906083042 | 23 | 245 | 0.0 | 0.0 | 0.00 | 0.00 | 0.00 | 76 | 1013.8 |
| 20260906082517 | 23 | 245 | 0.0 | 0.0 | 0.00 | 0.00 | 0.00 | 76 | 1013.7 |
| 20260906082019 | 23 | 245 | 0.0 | 0.0 | 0.00 | 0.00 | 0.00 | 76 | 1013.7 |
| 20260906081537 | 23 | 245 | 0.0 | 0.0 | 0.00 | 0.00 | 0.00 | 75 | 1013.7 |
| 20260906081015 | 23 | 245 | 0.0 | 0.0 | 0.00 | 0.00 | 0.00 | 75 | 1013.8 |
| 20260906080515 | 23 | 245 | 0.0 | 0.0 | 0.00 | 0.00 | 0.00 | 75 | 1013.8 |
| 20260906080039 | 23 | 245 | 0.0 | 0.0 | 0.00 | 0.00 | 0.00 | 75 | 1013.8 |
| 20260906075515 | 23 | 245 | 0.0 | 0.0 | 0.00 | 0.00 | 0.00 | 74 | 1013.7 |
| 20260906075007 | 23 | 245 | 0.0 | 0.0 | 0.00 | 0.00 | 0.00 | 73 | 1013.7 |
| 20260906074528 | 23 | 245 | 0.0 | 0.0 | 0.00 | 0.00 | 0.00 | 73 | 1013.7 |
| 20260906074012 | 23 | 245 | 0.0 | 0.0 | 0.00 | 0.00 | 0.00 | 72 | 1013.7 |
| 20260906073512 | 24 | 245 | 0.0 | 0.0 | 0.00 | 0.00 | 0.00 | 72 | 1013.7 |
| 20260906073028 | 24 | 245 | 0.0 | 0.0 | 0.00 | 0.00 | 0.00 | 72 | 1013.6 |
| 20260906072512 | 24 | 245 | 0.0 | 0.0 | 0.00 | 0.00 | 0.00 | 71 | 1013.6 |
| 20260906072014 | 24 | 245 | 0.0 | 0.0 | 0.00 | 0.00 | 0.00 | 71 | 1013.6 |
| 20260906071529 | 24 | 245 | 0.0 | 0.0 | 0.00 | 0.00 | 0.00 | 71 | 1013.6 |
| 20260906071016 | 24 | 245 | 0.0 | 0.0 | 0.00 | 0.00 | 0.00 | 71 | 1013.6 |
| 20260906070503 | 24 | 245 | 0.0 | 0.0 | 0.00 | 0.00 | 0.00 | 71 | 1013.7 |
| 20260906070010 | 24 | 245 | 0.0 | 0.0 | 0.00 | 0.00 | 0.00 | 71 | 1013.7 |
| 20260906065505 | 24 | 245 | 0.0 | 0.0 | 0.00 | 0.00 | 0.00 | 71 | 1013.7 |
| 20260906065008 | 24 | 245 | 0.0 | 0.0 | 0.00 | 0.00 | 0.00 | 70 | 1013.7 |
| 20260906064516 | 24 | 245 | 0.0 | 0.0 | 0.00 | 0.00 | 0.00 | 70 | 1013.7 |
| 20260906064008 | 24 | 245 | 0.0 | 0.0 | 0.00 | 0.00 | 0.00 | 70 | 1013.7 |
| 20260906063509 | 24 | 245 | 0.0 | 0.0 | 0.00 | 0.00 | 0.00 | 70 | 1013.7 |
| 20260906063027 | 24 | 245 | 0.0 | 0.0 | 0.00 | 0.00 | 0.00 | 71 | 1013.7 |
| 20260906062514 | 24 | 245 | 0.0 | 0.0 | 0.00 | 0.00 | 0.00 | 71 | 1013.7 |
| 20260906062011 | 24 | 245 | 0.0 | 0.0 | 0.00 | 0.00 | 0.00 | 71 | 1013.7 |
| 20260906061529 | 24 | 245 | 0.0 | 0.0 | 0.00 | 0.00 | 0.00 | 73 | 1013.7 |
| 20260906061015 | 24 | 245 | 0.0 | 0.0 | 0.00 | 0.00 | 0.00 | 73 | 1013.7 |
| 20260906060519 | 25 | 245 | 0.0 | 0.0 | 0.00 | 0.00 | 0.00 | 72 | 1013.6 |
| 20260906060031 | 25 | 245 | 0.0 | 0.0 | 0.00 | 0.00 | 0.00 | 72 | 1013.7 |
| 20260906055516 | 25 | 245 | 0.0 | 0.0 | 0.00 | 0.00 | 0.00 | 71 | 1013.8 |
| 20260906055004 | 25 | 245 | 0.0 | 0.0 | 0.00 | 0.00 | 0.00 | 71 | 1013.8 |
| 20260906054515 | 25 | 245 | 0.0 | 0.0 | 0.00 | 0.00 | 0.00 | 71 | 1013.8 |
| 20260906054007 | 25 | 245 | 0.0 | 0.0 | 0.00 | 0.00 | 0.00 | 71 | 1013.8 |
| 20260906053508 | 25 | 245 | 0.0 | 0.0 | 0.00 | 0.00 | 0.00 | 71 | 1013.8 |
| 20260906053020 | 25 | 245 | 0.0 | 0.0 | 0.00 | 0.00 | 0.00 | 70 | 1013.8 |
| 20260906052510 | 25 | 245 | 0.0 | 0.0 | 0.00 | 0.00 | 0.00 | 69 | 1013.8 |
| 20260906052011 | 25 | 245 | 0.0 | 0.0 | 0.00 | 0.00 | 0.00 | 69 | 1013.8 |
| 20260906051526 | 25 | 245 | 0.0 | 0.0 | 0.00 | 0.00 | 0.00 | 69 | 1013.7 |
| 20260906051014 | 25 | 245 | 0.0 | 0.0 | 0.00 | 0.00 | 0.00 | 69 | 1013.7 |
| 20260906050515 | 25 | 245 | 0.0 | 0.0 | 0.00 | 0.00 | 0.00 | 68 | 1013.7 |
| 20260906050034 | 25 | 245 | 0.0 | 0.0 | 0.00 | 0.00 | 0.00 | 67 | 1013.7 |
| 20260906045518 | 26 | 245 | 0.0 | 0.0 | 0.00 | 0.00 | 0.00 | 67 | 1013.7 |
| 20260906045015 | 26 | 245 | 0.0 | 0.0 | 0.00 | 0.00 | 0.00 | 67 | 1013.7 |
| 20260906044533 | 26 | 245 | 0.0 | 0.0 | 0.00 | 0.00 | 0.00 | 67 | 1013.7 |
| 20260906044018 | 26 | 245 | 0.0 | 0.0 | 0.00 | 0.00 | 0.00 | 67 | 1013.6 |
| 20260906043506 | 26 | 245 | 0.0 | 0.0 | 0.00 | 0.00 | 0.00 | 65 | 1013.7 |
| 20260906043020 | 26 | 245 | 0.0 | 0.0 | 0.00 | 0.00 | 0.00 | 65 | 1013.6 |
| 20260906042510 | 26 | 245 | 0.0 | 0.0 | 0.00 | 0.00 | 0.00 | 64 | 1013.6 |
| 20260906042009 | 26 | 245 | 0.0 | 0.0 | 0.00 | 0.00 | 0.00 | 64 | 1013.6 |
| 20260906041523 | 26 | 245 | 0.0 | 0.0 | 0.00 | 0.00 | 0.00 | 64 | 1013.6 |
| 20260906041012 | 26 | 245 | 0.0 | 0.0 | 0.00 | 0.00 | 0.00 | 64 | 1013.6 |
| 20260906040514 | 26 | 245 | 0.0 | 0.0 | 0.00 | 0.00 | 0.00 | 63 | 1013.6 |
| 20260906040032 | 26 | 245 | 0.0 | 0.0 | 0.00 | 0.00 | 0.00 | 63 | 1013.6 |
| 20260906035511 | 26 | 245 | 0.0 | 0.0 | 0.00 | 0.00 | 0.00 | 63 | 1013.6 |
| 20260906035018 | 27 | 245 | 0.0 | 0.0 | 0.00 | 0.00 | 0.00 | 63 | 1013.7 |
| 20260906034532 | 27 | 245 | 0.0 | 0.0 | 0.00 | 0.00 | 0.00 | 63 | 1013.7 |
| 20260906034015 | 27 | 245 | 0.0 | 0.0 | 0.00 | 0.00 | 0.00 | 62 | 1013.5 |
| 20260906033517 | 27 | 245 | 0.0 | 0.0 | 0.00 | 0.00 | 0.00 | 62 | 1013.6 |
| 20260906033045 | 27 | 245 | 0.0 | 0.0 | 0.00 | 0.00 | 0.00 | 62 | 1013.5 |
| 20260906032516 | 27 | 245 | 0.0 | 0.0 | 0.00 | 0.00 | 0.00 | 61 | 1013.5 |
| 20260906032015 | 27 | 245 | 0.0 | 0.0 | 0.00 | 0.00 | 0.00 | 61 | 1013.4 |
| 20260906031534 | 27 | 245 | 0.0 | 0.0 | 0.00 | 0.00 | 0.00 | 60 | 1013.5 |
| 20260906031011 | 27 | 245 | 0.0 | 0.0 | 0.00 | 0.00 | 0.00 | 60 | 1013.4 |
| 20260906030510 | 27 | 245 | 0.0 | 0.0 | 0.00 | 0.00 | 0.00 | 60 | 1013.4 |
| 20260906030024 | 27 | 245 | 0.0 | 0.0 | 0.00 | 0.00 | 0.00 | 59 | 1013.3 |
| 20260906025510 | 28 | 245 | 0.0 | 0.0 | 0.00 | 0.00 | 0.00 | 59 | 1013.3 |
| 20260906025012 | 28 | 245 | 0.0 | 0.0 | 0.00 | 0.00 | 0.00 | 59 | 1013.2 |
| 20260906024544 | 28 | 245 | 0.0 | 0.0 | 0.00 | 0.00 | 0.00 | 60 | 1013.2 |
| 20260906024014 | 28 | 245 | 0.0 | 0.0 | 0.00 | 0.00 | 0.00 | 60 | 1013.2 |
| 20260906023516 | 28 | 245 | 0.0 | 0.0 | 0.00 | 0.00 | 0.00 | 59 | 1013.0 |
| 20260906023032 | 28 | 245 | 0.0 | 0.0 | 0.00 | 0.00 | 0.00 | 60 | 1012.9 |
| 20260906022514 | 28 | 245 | 0.0 | 0.0 | 0.00 | 0.00 | 0.00 | 60 | 1012.9 |
| 20260906022019 | 28 | 245 | 0.0 | 0.0 | 0.00 | 0.00 | 0.00 | 60 | 1012.9 |
| 20260906021532 | 28 | 245 | 0.0 | 0.0 | 0.00 | 0.00 | 0.00 | 61 | 1012.8 |
| 20260906021018 | 28 | 245 | 0.0 | 0.0 | 0.00 | 0.00 | 0.00 | 61 | 1012.7 |
| 20260906020518 | 28 | 245 | 0.0 | 0.0 | 0.00 | 0.00 | 0.00 | 60 | 1012.6 |
| 20260906020018 | 28 | 245 | 0.0 | 0.0 | 0.00 | 0.00 | 0.00 | 60 | 1012.5 |
| 20260906015515 | 28 | 245 | 0.0 | 0.0 | 0.00 | 0.00 | 0.00 | 60 | 1012.5 |
| 20260906015012 | 29 | 245 | 0.0 | 0.0 | 0.00 | 0.00 | 0.00 | 59 | 1012.4 |
| 20260906014539 | 29 | 245 | 0.0 | 0.0 | 0.00 | 0.00 | 0.00 | 58 | 1012.4 |
| 20260906014012 | 29 | 245 | 0.0 | 0.0 | 0.00 | 0.00 | 0.00 | 58 | 1012.4 |
| 20260906013514 | 30 | 245 | 0.0 | 0.0 | 0.00 | 0.00 | 0.00 | 57 | 1012.2 |
| 20260906013042 | 30 | 245 | 0.0 | 0.0 | 0.00 | 0.00 | 0.00 | 60 | 1012.1 |
| 20260906012519 | 30 | 245 | 0.0 | 0.0 | 0.00 | 0.00 | 0.00 | 60 | 1012.1 |
| 20260906012014 | 30 | 245 | 0.0 | 0.0 | 0.00 | 0.00 | 0.00 | 59 | 1012.0 |
| 20260906011532 | 31 | 245 | 0.0 | 0.0 | 0.00 | 0.00 | 0.00 | 54 | 1012.1 |
| 20260906011017 | 31 | 245 | 0.0 | 0.0 | 0.00 | 0.00 | 0.00 | 56 | 1012.0 |
| 20260906010518 | 31 | 245 | 0.0 | 0.0 | 0.00 | 0.00 | 0.00 | 56 | 1011.9 |
| 20260906010020 | 32 | 245 | 0.0 | 0.0 | 0.00 | 0.00 | 0.00 | 53 | 1011.7 |
| 20260906005515 | 32 | 245 | 0.0 | 0.0 | 0.00 | 0.00 | 0.00 | 52 | 1011.7 |
| 20260906005011 | 32 | 245 | 0.0 | 0.0 | 0.00 | 0.00 | 0.00 | 50 | 1011.6 |
| 20260906004523 | 33 | 245 | 0.0 | 0.0 | 0.00 | 0.00 | 0.00 | 45 | 1011.6 |
| 20260906004013 | 33 | 245 | 0.0 | 0.0 | 0.00 | 0.00 | 0.00 | 45 | 1011.6 |
| 20260906003512 | 33 | 245 | 0.0 | 0.0 | 0.00 | 0.00 | 0.00 | 45 | 1011.7 |
| 20260906003005 | 33 | 245 | 0.0 | 0.0 | 0.00 | 0.00 | 0.00 | 44 | 1011.8 |
| 20260906002503 | 33 | 245 | 0.0 | 0.0 | 0.00 | 0.00 | 0.00 | 44 | 1011.9 |
| 20260906002004 | 34 | 245 | 0.0 | 0.0 | 0.00 | 0.00 | 0.00 | 42 | 1011.9 |
| 20260906001512 | 34 | 245 | 0.0 | 0.0 | 0.00 | 0.00 | 0.00 | 42 | 1011.9 |
| 20260906001004 | 34 | 245 | 0.0 | 0.0 | 0.00 | 0.00 | 0.00 | 41 | 1011.9 |
| 20260906000504 | 35 | 245 | 0.0 | 4.8 | 0.00 | 0.00 | 0.00 | 41 | 1011.9 |
| 20260906000014 | 35 | 237 | 0.0 | 6.4 | 0.00 | 0.00 | 0.00 | 40 | 1011.9 |
| 20260905235508 | 35 | 237 | 0.0 | 6.4 | 0.00 | 0.00 | 0.00 | 39 | 1011.9 |
| 20260905235007 | 35 | 277 | 1.6 | 4.8 | 0.00 | 0.00 | 0.00 | 38 | 1011.9 |
| 20260905234519 | 36 | 282 | 0.0 | 4.8 | 0.00 | 0.00 | 0.00 | 38 | 1011.9 |
| 20260905234010 | 36 | 275 | 0.0 | 4.8 | 0.00 | 0.00 | 0.00 | 38 | 1012.0 |
| 20260905233515 | 36 | 152 | 0.0 | 9.7 | 0.00 | 0.00 | 0.00 | 37 | 1012.0 |
| 20260905233026 | 36 | 259 | 1.6 | 9.7 | 0.00 | 0.00 | 0.00 | 36 | 1012.1 |
| 20260905232516 | 37 | 239 | 0.0 | 6.4 | 0.00 | 0.00 | 0.00 | 35 | 1012.0 |
| 20260905232014 | 37 | 159 | 1.6 | 8.0 | 0.00 | 0.00 | 0.00 | 36 | 1011.9 |
| 20260905231506 | 37 | 239 | 1.6 | 11.3 | 0.00 | 0.00 | 0.00 | 36 | 1012.0 |
| 20260905231004 | 37 | 259 | 0.0 | 11.3 | 0.00 | 0.00 | 0.00 | 36 | 1012.0 |
| 20260905230504 | 37 | 236 | 0.0 | 9.7 | 0.00 | 0.00 | 0.00 | 36 | 1012.0 |
| 20260905230009 | 37 | 266 | 1.6 | 14.5 | 0.00 | 0.00 | 0.00 | 35 | 1011.9 |
| 20260905225505 | 37 | 235 | 1.6 | 14.5 | 0.00 | 0.00 | 0.00 | 35 | 1011.9 |
| 20260905225007 | 38 | 184 | 1.6 | 11.3 | 0.00 | 0.00 | 0.00 | 34 | 1011.9 |
| 20260905224513 | 38 | 263 | 0.0 | 9.7 | 0.00 | 0.00 | 0.00 | 34 | 1011.9 |
| 20260905224007 | 38 | 303 | 0.0 | 9.7 | 0.00 | 0.00 | 0.00 | 34 | 1011.9 |
| 20260905223510 | 38 | 265 | 1.6 | 6.4 | 0.00 | 0.00 | 0.00 | 34 | 1011.9 |
| 20260905223023 | 38 | 248 | 1.6 | 17.7 | 0.00 | 0.00 | 0.00 | 34 | 1011.9 |
| 20260905222514 | 38 | 274 | 4.8 | 17.7 | 0.00 | 0.00 | 0.00 | 34 | 1011.8 |
| 20260905222009 | 38 | 240 | 1.6 | 12.9 | 0.00 | 0.00 | 0.00 | 34 | 1011.8 |
| 20260905221527 | 38 | 250 | 1.6 | 12.9 | 0.00 | 0.00 | 0.00 | 33 | 1011.8 |
| 20260905221014 | 38 | 248 | 1.6 | 9.7 | 0.00 | 0.00 | 0.00 | 32 | 1011.8 |
| 20260905220515 | 38 | 250 | 1.6 | 11.3 | 0.00 | 0.00 | 0.00 | 34 | 1011.7 |
| 20260905220032 | 38 | 255 | 3.2 | 11.3 | 0.00 | 0.00 | 0.00 | 33 | 1011.7 |
| 20260905215503 | 38 | 159 | 1.6 | 11.3 | 0.00 | 0.00 | 0.00 | 34 | 1011.7 |
| 20260905215002 | 38 | 250 | 3.2 | 12.9 | 0.00 | 0.00 | 0.00 | 34 | 1011.8 |
| 20260905214510 | 38 | 278 | 3.2 | 14.5 | 0.00 | 0.00 | 0.00 | 35 | 1011.7 |
| 20260905214006 | 38 | 272 | 4.8 | 14.5 | 0.00 | 0.00 | 0.00 | 35 | 1011.8 |
| 20260905213509 | 38 | 12 | 1.6 | 11.3 | 0.00 | 0.00 | 0.00 | 33 | 1011.8 |
| 20260905213018 | 38 | 236 | 3.2 | 11.3 | 0.00 | 0.00 | 0.00 | 33 | 1011.8 |
| 20260905212508 | 38 | 310 | 1.6 | 12.9 | 0.00 | 0.00 | 0.00 | 34 | 1011.8 |
| 20260905212012 | 37 | 246 | 1.6 | 12.9 | 0.00 | 0.00 | 0.00 | 35 | 1011.9 |
| 20260905211534 | 37 | 259 | 0.0 | 9.7 | 0.00 | 0.00 | 0.00 | 37 | 1012.0 |
| 20260905211013 | 37 | 335 | 3.2 | 9.7 | 0.00 | 0.00 | 0.00 | 37 | 1012.2 |
| 20260905210515 | 37 | 270 | 0.0 | 9.7 | 0.00 | 0.00 | 0.00 | 37 | 1012.3 |
| 20260905210029 | 37 | 277 | 1.6 | 11.3 | 0.00 | 0.00 | 0.00 | 36 | 1012.3 |
| 20260905205516 | 37 | 249 | 1.6 | 11.3 | 0.00 | 0.00 | 0.00 | 35 | 1012.4 |
| 20260905205016 | 38 | 269 | 4.8 | 9.7 | 0.00 | 0.00 | 0.00 | 34 | 1012.4 |
| 20260905204535 | 38 | 259 | 1.6 | 9.7 | 0.00 | 0.00 | 0.00 | 34 | 1012.5 |
| 20260905204006 | 38 | 165 | 1.6 | 14.5 | 0.00 | 0.00 | 0.00 | 33 | 1012.6 |
| 20260905203504 | 38 | 312 | 3.2 | 14.5 | 0.00 | 0.00 | 0.00 | 34 | 1012.7 |
| 20260905203013 | 38 | 282 | 1.6 | 9.7 | 0.00 | 0.00 | 0.00 | 34 | 1012.8 |
| 20260905202507 | 38 | 262 | 3.2 | 9.7 | 0.00 | 0.00 | 0.00 | 35 | 1012.9 |
| 20260905202007 | 38 | 207 | 1.6 | 12.9 | 0.00 | 0.00 | 0.00 | 35 | 1012.9 |
| 20260905201519 | 38 | 252 | 3.2 | 12.9 | 0.00 | 0.00 | 0.00 | 36 | 1013.1 |
| 20260905201009 | 38 | 150 | 3.2 | 11.3 | 0.00 | 0.00 | 0.00 | 37 | 1013.1 |
| 20260905200513 | 37 | 266 | 1.6 | 12.9 | 0.00 | 0.00 | 0.00 | 38 | 1013.2 |
| 20260905200023 | 37 | 176 | 1.6 | 12.9 | 0.00 | 0.00 | 0.00 | 38 | 1013.2 |